Weather History for KLOL - August, 2013

Change the Weather History Date:

Tuesday, August 20, 2013

  Actual Average Record
Temperature  
Mean Temperature 78 °F -  
Max Temperature 97 °F 87 °F 100 °F (1950)
Min Temperature 60 °F 52 °F 38 °F (1957)
Cooling Degree Days 13    
Growing Degree Days 28 (Base 50)    
Moisture  
Dew Point 47 °F    
Average Humidity 36    
Maximum Humidity 65    
Minimum Humidity 13    
Precipitation  
Precipitation 0.00 in - - ()
Sea Level Pressure  
Sea Level Pressure 29.94 in    
Wind  
Wind Speed 8 mph (West)    
Max Wind Speed 22 mph    
Max Gust Speed 36 mph    
Visibility 9 miles    
Events Rain    
Averages and records for this station are not official NWS values.
T = Trace of Precipitation, MM = Missing Value Source: NWS Daily Summary

Daily Weather History Graph

Daily Weather History Graph

Search for Another Location

Airport or City:

Trip Planner

Search our weather history database for the weather conditions in past years. The results will help you decide how hot, cold, wet, or windy it might be!

Date:

Astronomy

Aug. 20, 2013 Rise Set
Actual Time 6:10 AM PDT 7:43 PM PDT
Civil Twilight 5:42 AM PDT 8:12 PM PDT
Nautical Twilight 5:07 AM PDT 8:46 PM PDT
Astronomical Twilight 4:31 AM PDT 9:22 PM PDT
Moon 7:18 PM PDT (8/20) 5:46 AM PDT (8/20)
Length of Visible Light 14h 29m
Length of Day
13h 32m
Full, 100% of the Moon is Illuminated
Aug 20
Full
Aug 20
Full
Aug 28
Last Quarter
Sep 5
New
Sep 12
First Quarter

Hourly Weather History & Observations

Time (PDT) Temp. Dew Point Humidity Pressure Visibility Wind Dir Wind Speed Gust Speed Precip Events Conditions
12:53 AM 73.0 °F 48.0 °F 41% 29.91 in 10.0 mi SW 8.1 mph - N/A   Partly Cloudy
1:53 AM 71.1 °F 46.9 °F 42% 29.89 in 10.0 mi WNW 3.5 mph - N/A   Clear
2:53 AM 66.9 °F 46.9 °F 49% 29.89 in 10.0 mi East 8.1 mph - N/A   Clear
3:53 AM 66.0 °F 46.9 °F 50% 29.89 in 10.0 mi West 5.8 mph - N/A   Clear
4:53 AM 68.0 °F 46.9 °F 47% 29.89 in 10.0 mi Calm Calm - N/A   Clear
5:53 AM 64.0 °F 46.0 °F 52% 29.91 in 10.0 mi Calm Calm - N/A   Clear
6:53 AM 60.1 °F 43.0 °F 53% 29.93 in 10.0 mi West 5.8 mph - N/A   Clear
7:53 AM 68.0 °F 46.0 °F 45% 29.94 in 10.0 mi Calm Calm - N/A   Clear
8:53 AM 77.0 °F 48.0 °F 36% 29.93 in 10.0 mi West 3.5 mph - N/A   Clear
11:53 AM 88.0 °F 46.9 °F 24% 29.89 in 10.0 mi West 4.6 mph - N/A   Clear
12:53 PM 91.0 °F 45.0 °F 20% 29.87 in 10.0 mi SSW 8.1 mph - N/A   Clear
1:53 PM 93.0 °F 43.0 °F 18% 29.85 in 10.0 mi West 9.2 mph - N/A   Clear
2:53 PM 95.0 °F 42.1 °F 16% 29.82 in 10.0 mi SSW 4.6 mph - N/A   Clear
3:53 PM 95.0 °F 39.9 °F 15% 29.80 in 10.0 mi Variable 6.9 mph - N/A   Clear
4:53 PM 96.1 °F 39.0 °F 14% 29.77 in 10.0 mi North - - N/A   Clear
5:53 PM 93.9 °F 39.0 °F 15% 29.76 in 10.0 mi East 9.2 mph - N/A   Clear
6:53 PM 93.9 °F 36.0 °F 13% 29.77 in 10.0 mi East 8.1 mph - N/A   Clear
7:53 PM 86.0 °F 39.0 °F 19% 29.80 in 10.0 mi East 18.4 mph - N/A   Clear
8:13 PM 84.9 °F 45.0 °F 25% 29.95 in 5.0 mi SSE 21.9 mph 34.5 mph N/A   Haze
8:19 PM 84.0 °F 45.0 °F 25% 29.96 in 4.0 mi WSW 19.6 mph 35.7 mph N/A   Haze
8:53 PM 82.0 °F 46.0 °F 28% 29.86 in 10.0 mi North - - N/A   Scattered Clouds
9:53 PM 75.9 °F 53.1 °F 45% 29.95 in 10.0 mi WNW 12.7 mph 24.2 mph N/A   Mostly Cloudy
10:18 PM 78.1 °F 50.0 °F 37% 30.12 in 1.8 mi South 10.4 mph - N/A   Haze
10:28 PM 77.0 °F 50.0 °F 39% 30.13 in 0.8 mi NNE 9.2 mph - N/A   Haze
10:34 PM 75.9 °F 53.1 °F 45% 30.13 in 2.0 mi Variable 3.5 mph - N/A   Haze
10:42 PM 75.9 °F 52.0 °F 43% 30.14 in 6.0 mi NW 13.8 mph 18.4 mph N/A   Haze
10:50 PM 73.4 °F 53.6 °F 50% 30.15 in 10.0 mi WNW 15.0 mph - 0.00 in Rain Light Rain
10:53 PM 73.0 °F 55.0 °F 53% 30.02 in 10.0 mi WNW 17.3 mph - 0.00 in Rain Light Rain
11:20 PM 70.0 °F 57.0 °F 63% 30.15 in 9.0 mi West 11.5 mph - 0.00 in   Overcast
11:53 PM 70.0 °F 57.9 °F 65% 30.02 in 9.0 mi NW 13.8 mph - 0.00 in   Overcast